GFSMW_con_lsi_132.txt.gz
Lid_Strength_Index
5 5 4 2 2 2 2 1 1 1 1 1 1 1 2 1 1 0 0 0 1 0 1 1 1 1 2 3 2 3 2 3 2 3 2 2 2 2 2 2 3 3 3
6 5 5 4 2 2 2 2 1 1 1 1 1 1 1 1 1 0 0 0 0 1 1 1 1 1 1 1 2 2 3 3 2 3 3 5 5 4 2 2 2 3 3
5 6 7 6 4 3 2 2 2 1 1 1 1 1 1 1 1 1 1 0 0 0 1 1 1 1 2 1 1 2 2 3 3 2 4 6 7 5 3 3 3 3 4
6 5 5 6 6 3 2 2 1 1 1 1 1 2 2 3 2 1 1 1 0 0 0 1 1 1 2 2 2 2 2 3 3 3 2 3 4 6 6 5 4 3 3
6 6 5 4 4 4 4 3 2 2 1 1 1 2 2 2 1 1 1 1 1 1 0 1 1 1 2 2 2 2 2 2 3 3 4 4 4 2 4 6 4 6 5
6 6 5 4 5 4 4 4 4 4 2 2 1 2 2 2 2 2 2 1 1 1 1 1 1 1 1 2 3 2 3 3 3 3 3 4 4 4 4 5 4 4 4
7 7 7 7 6 6 5 4 4 5 4 3 2 1 1 2 2 2 2 2 2 1 1 1 1 1 2 2 2 3 3 3 3 3 3 3 3 3 3 3 4 5 4
7 8 8 8 8 6 6 6 5 5 4 4 4 2 1 1 1 1 1 1 1 1 1 1 1 1 1 1 2 2 2 2 3 3 3 3 3 3 3 3 4 5 4
7 8 8 8 8 7 7 7 7 6 4 4 3 4 2 1 1 1 1 1 1 1 1 1 1 1 1 1 1 1 1 1 1 2 3 3 3 3 3 2 2 4 6
8 8 8 8 7 7 7 7 7 7 6 5 4 3 2 2 1 1 1 1 1 1 2 2 2 1 1 1 1 1 1 2 2 2 2 2 2 2 2 2 3 3 4
8 8 8 8 8 8 7 7 8 8 7 6 5 4 2 2 2 2 1 1 1 2 2 2 2 2 2 1 2 1 1 2 2 2 2 2 2 2 2 3 3 3 4
7 7 7 7 6 7 7 7 8 8 7 7 5 5 4 3 2 2 2 2 2 2 2 2 2 2 1 1 1 1 1 2 3 3 3 3 3 3 3 3 3 4 3
8 8 8 7 7 7 6 6 6 7 7 7 7 4 4 3 3 2 2 2 2 2 2 2 2 2 2 2 2 2 2 2 3 3 4 3 3 4 4 4 4 4 4
7 8 9 9 8 7 7 7 6 6 6 7 7 7 3 3 2 2 2 2 2 2 1 1 2 2 2 2 2 2 2 3 3 3 3 3 4 4 4 4 4 5 5
9 9 9 9 8 8 8 8 7 7 6 6 7 7 6 3 3 5 4 4 4 5 5 3 3 2 3 3 3 2 2 3 3 5 5 5 7 10 7 6 6 8 10
10 9 9 9 10 9 9 9 8 7 7 7 6 6 7 7 6 6 7 7 7 7 7 7 8 7 7 10 10 8 5 5 6 7 9 11 13 11 11 10 9 8 9
11 11 11 10 10 10 10 11 10 9 9 8 6 8 8 9 9 9 9 9 8 8 9 9 9 9 9 9 9 10 7 7 8 9 11 12 12 11 11 10 10 11 9
12 12 12 11 11 10 10 11 11 12 11 9 8 9 10 11 11 11 10 10 10 10 10 10 10 10 11 10 9 10 9 10 10 11 11 12 12 12 11 12 13 13 13
13 12 12 12 12 11 11 12 12 12 12 11 11 11 11 11 11 11 11 10 11 11 11 12 13 13 12 10 10 11 12 13 13 13 12 12 12 11 10 13 14 14 14
13 13 13 13 13 13 13 13 13 13 13 12 12 12 11 11 11 10 11 13 13 13 13 13 14 14 13 11 10 11 13 14 14 14 13 13 13 11 11 13 13 14 14
14 14 15 15 15 15 15 15 14 14 13 14 13 12 12 12 11 11 13 13 13 13 13 13 14 13 13 12 11 11 13 13 14 14 14 14 11 11 11 11 13 13 13
16 16 17 17 17 16 16 16 17 15 15 15 15 13 12 12 12 12 12 13 13 13 13 14 14 14 14 13 11 11 12 12 13 14 14 13 11 11 11 12 11 11 13
17 17 18 19 18 18 18 19 18 17 17 17 16 13 12 12 13 13 13 13 12 12 13 14 14 14 14 14 12 12 11 12 13 13 12 11 11 11 11 11 11 13 13
18 18 20 20 21 20 20 20 20 19 20 20 17 14 12 12 12 13 13 13 13 13 13 14 14 15 14 14 14 14 14 13 13 13 13 12 12 12 13 14 14 14 14
19 20 21 21 22 21 22 21 21 21 21 20 18 15 13 12 14 14 14 15 14 13 13 13 14 14 15 14 13 14 14 14 14 14 14 14 14 15 15 14 14 15 15
22 22 23 23 23 23 23 22 22 22 22 20 17 14 14 14 14 15 14 12 13 12 12 12 13 14 13 12 13 13 12 13 13 15 15 16 16 16 15 16 16 16 15

GFSMW_con_lsi_135.txt.gz
Lid_Strength_Index
5 5 4 3 2 3 2 2 2 1 1 1 2 1 2 2 1 1 1 1 1 1 1 1 2 2 3 3 3 4 4 3 3 4 3 4 2 2 2 3 4 4 3
7 6 6 3 3 3 2 2 2 1 1 1 1 1 1 1 1 1 1 1 1 1 1 1 2 2 2 3 3 3 3 3 3 4 5 6 5 3 2 3 3 3 3
7 7 6 6 4 2 3 2 2 2 1 1 1 1 1 1 2 2 2 1 1 1 1 1 1 2 2 2 2 3 3 3 3 3 4 7 7 6 5 4 3 2 4
6 6 6 7 7 3 2 2 2 2 2 1 1 2 2 3 2 1 1 1 1 1 1 1 1 2 2 2 2 2 3 3 4 4 3 4 6 7 7 7 6 3 4
7 6 5 5 6 5 5 2 2 2 1 1 1 2 2 2 1 1 1 1 1 1 1 1 1 2 2 2 2 2 3 3 3 3 4 4 4 6 7 7 6 7 4
7 6 6 6 7 7 7 6 4 3 2 2 1 1 2 2 2 2 2 2 1 1 1 1 1 2 1 2 2 2 2 3 4 4 3 4 5 5 6 7 5 5 4
8 8 7 7 7 7 7 7 7 6 5 3 2 2 2 2 2 2 2 2 2 1 1 1 1 1 1 1 2 2 3 3 3 4 4 4 4 5 5 6 7 7 5
8 8 8 8 8 7 7 8 8 8 6 5 4 3 2 1 1 1 1 1 1 1 1 1 1 1 1 2 1 2 2 2 2 3 3 3 3 3 4 5 6 7 7
8 8 7 7 7 7 7 8 8 8 7 7 6 5 3 2 2 1 1 1 1 1 1 1 1 1 1 2 2 2 2 2 2 2 2 3 2 2 3 3 5 6 6
8 8 8 8 7 7 7 7 8 8 8 7 7 6 5 3 1 1 1 1 1 2 2 2 2 1 1 2 2 2 1 2 1 1 2 2 2 2 2 2 3 3 4
9 9 8 8 8 8 7 8 8 8 7 7 7 6 5 4 3 2 1 1 1 2 2 2 2 2 2 1 2 2 2 1 1 1 1 2 2 2 3 3 3 4 3
9 9 8 8 9 8 8 8 8 8 8 7 7 7 5 4 3 3 2 1 2 2 2 2 2 2 2 2 2 2 2 2 2 2 2 2 2 3 3 3 3 3 3
9 10 10 10 10 9 9 9 9 8 7 8 7 7 6 5 3 2 2 2 2 3 2 2 2 1 2 2 2 2 2 2 2 2 2 3 3 3 3 3 3 4 4
10 10 10 10 10 11 10 10 10 9 9 9 8 8 7 6 4 2 2 3 3 2 2 2 1 2 2 2 2 2 2 2 2 2 2 2 3 3 3 4 4 4 4
12 12 12 12 12 12 11 11 11 11 10 10 10 9 7 6 6 6 5 4 5 5 5 4 4 4 3 3 3 2 2 2 3 4 3 3 5 8 5 4 4 5 6
13 13 13 13 12 12 12 11 11 11 11 11 11 9 9 9 7 7 8 8 7 6 6 6 7 6 6 10 10 9 5 5 5 4 5 9 13 10 10 9 8 7 7
15 14 14 14 13 13 13 13 13 13 11 12 11 10 12 12 11 10 10 9 9 8 8 8 8 8 8 9 9 9 8 7 6 7 10 12 12 12 11 11 11 12 9
15 15 15 15 15 15 14 14 14 14 12 13 12 12 12 12 12 12 11 11 9 10 10 9 9 9 10 9 9 10 8 9 10 10 10 11 12 12 12 12 13 13 13
15 15 15 15 16 16 16 16 16 15 14 14 14 14 13 13 12 12 11 10 10 10 11 11 12 12 11 9 9 10 11 12 12 12 11 11 12 11 10 13 13 14 14
15 16 16 16 17 16 17 17 17 17 16 16 16 15 14 14 13 11 11 10 11 11 12 13 13 13 13 11 10 10 13 13 13 13 13 13 12 11 10 13 13 14 14
16 16 17 18 17 18 18 18 18 18 18 18 17 16 15 14 13 11 11 11 11 13 12 12 13 13 13 12 10 9 12 13 13 13 14 13 11 11 11 11 13 13 13
18 18 19 19 19 18 19 20 20 19 19 19 19 19 17 15 13 12 11 11 12 12 13 13 13 13 13 12 11 10 11 11 13 13 14 13 11 11 11 12 11 11 13
19 19 20 20 20 20 20 21 21 21 21 21 22 21 18 16 13 12 12 11 12 12 13 13 13 14 13 12 11 10 10 11 13 13 12 11 11 11 11 11 11 13 13
20 21 21 22 22 21 21 22 21 21 22 23 22 21 19 17 13 11 11 11 11 12 12 13 13 14 14 14 14 13 13 12 13 12 12 12 13 12 13 14 14 14 13
21 22 23 23 23 22 22 22 22 22 23 22 22 20 17 15 13 12 13 13 12 12 12 12 12 14 15 14 13 13 13 13 13 13 14 14 15 15 15 15 15 15 15
22 23 23 23 23 23 23 23 22 23 23 23 21 20 18 15 14 13 13 11 11 11 11 11 12 13 12 12 12 12 12 12 13 14 15 16 16 16 16 17 17 16 16

GFSMW_con_lsi_138.txt.gz
Lid_Strength_Index
6 5 5 3 2 2 2 2 2 2 1 2 2 2 2 2 2 2 2 1 1 1 1 1 2 3 3 3 3 4 4 4 4 5 4 3 3 3 3 2 3 4 4
6 5 5 5 3 2 2 2 2 2 2 1 1 1 1 1 1 1 1 2 2 1 1 1 1 2 3 3 4 4 4 4 3 4 5 5 5 3 3 3 3 4 4
6 5 6 6 6 3 3 2 2 2 1 1 1 2 2 2 2 1 1 1 1 2 1 1 1 2 2 3 3 4 4 4 4 3 4 6 7 7 5 4 3 4 5
7 7 6 6 6 5 3 2 2 2 2 1 2 2 2 3 2 1 1 1 1 1 2 1 2 2 2 2 3 3 4 4 4 5 3 3 6 7 7 7 7 5 5
8 7 6 6 7 6 6 5 3 2 2 2 2 2 2 2 1 1 1 1 1 1 1 2 2 2 2 2 2 2 3 3 4 4 5 4 3 5 7 7 7 8 7
7 8 8 7 7 7 7 7 7 7 6 4 1 2 2 2 2 2 2 1 1 1 1 1 2 2 2 2 2 2 2 3 3 3 3 4 6 5 6 6 6 7 7
9 9 9 8 8 8 7 6 7 7 7 7 6 4 1 2 2 2 2 2 2 1 1 1 2 2 2 2 2 2 2 2 3 3 3 3 3 4 4 5 6 6 6
9 9 9 8 8 8 7 7 7 7 7 7 7 7 6 3 1 1 1 1 1 1 1 1 1 1 1 1 2 2 2 2 2 2 2 2 3 3 3 5 5 6 6
10 9 9 9 9 8 8 8 8 7 7 7 7 7 7 6 5 3 1 1 1 1 1 1 1 1 1 2 2 2 2 2 2 2 2 2 2 2 3 3 4 5 7
10 10 9 9 9 9 9 9 8 8 8 8 8 7 7 6 5 4 3 2 1 1 1 1 1 1 1 1 1 2 1 2 2 2 2 2 2 2 2 3 3 3 5
11 11 10 10 10 9 10 10 10 9 9 9 9 9 8 7 6 5 3 3 1 1 1 1 1 1 1 1 1 1 1 2 2 2 2 2 2 2 2 1 2 2 3
11 11 11 11 11 10 10 10 11 10 10 10 10 9 8 8 7 7 4 3 3 2 1 1 1 2 2 1 1 2 2 2 2 2 2 2 2 2 2 2 2 2 2
11 12 12 12 12 12 11 11 11 12 11 11 10 10 9 8 8 7 6 5 4 2 2 2 2 2 2 1 1 1 2 2 2 2 2 2 2 2 2 2 3 2 3
13 13 13 14 13 13 13 12 12 12 12 12 11 11 10 10 10 9 8 7 6 4 2 3 3 2 2 2 2 2 2 2 2 2 2 2 2 2 2 3 3 3 3
14 14 14 14 14 15 15 13 14 14 13 13 12 12 10 11 11 11 10 10 9 7 6 4 4 4 4 3 6 3 2 2 2 3 2 2 4 8 5 3 3 3 4
15 15 15 15 15 16 16 14 16 16 15 14 13 13 12 12 12 11 11 11 10 9 8 8 7 7 5 7 8 9 7 6 5 4 4 4 11 9 10 9 8 5 5
17 16 16 16 16 17 15 17 17 16 16 15 14 15 14 15 14 13 12 11 10 9 9 9 8 8 8 8 8 9 8 7 5 6 7 9 11 11 10 11 11 11 10
18 17 17 17 17 17 17 18 17 17 17 17 16 17 17 17 16 15 13 12 11 10 9 9 8 9 9 8 8 9 9 8 8 8 8 9 10 11 11 12 13 13 13
17 17 17 17 17 18 18 18 18 18 18 18 19 19 18 18 18 17 15 13 11 11 10 9 10 10 10 9 9 9 11 11 11 11 11 10 11 10 10 12 13 14 14
18 18 18 18 19 19 19 19 19 19 19 19 19 19 19 18 18 17 16 13 11 11 11 10 10 11 12 10 9 10 12 12 13 13 12 13 11 10 10 12 13 13 13
19 19 20 21 20 20 20 20 20 20 20 20 20 20 19 19 19 18 15 14 12 11 11 11 11 11 12 11 10 9 11 12 12 13 13 13 10 10 10 11 13 12 13
20 20 22 22 21 20 21 21 21 20 20 21 21 21 21 20 18 18 16 14 12 11 11 11 11 11 12 12 11 10 9 10 12 13 13 13 10 10 10 11 11 11 13
21 21 22 22 21 21 21 22 21 20 21 22 22 22 21 20 19 18 16 13 11 11 11 11 11 11 12 12 11 10 9 9 11 12 12 11 10 10 11 11 11 13 13
22 22 22 23 23 22 22 22 21 21 22 23 22 21 20 19 18 16 14 13 12 11 11 11 11 11 12 12 12 13 12 12 12 11 11 11 12 12 12 13 13 13 13
22 22 23 23 24 23 23 23 21 22 22 22 21 20 19 19 18 16 14 12 12 12 12 11 11 11 12 11 11 12 12 13 13 13 13 14 14 14 15 15 15 15 15
23 24 24 24 25 25 24 24 22 22 22 22 20 20 19 18 17 16 12 11 11 12 12 12 10 11 10 10 11 11 11 11 12 14 15 15 15 16 16 16 16 16 16

GFSMW_con_lsi_141.txt.gz
Lid_Strength_Index
6 6 6 5 5 2 2 2 2 2 2 3 3 3 3 2 2 2 1 1 1 1 2 1 2 3 3 3 4 4 4 4 5 5 5 4 4 3 2 2 3 3 4
6 6 5 6 5 3 2 2 2 2 2 2 2 1 2 2 2 2 1 1 1 1 1 2 2 2 3 3 4 4 5 4 4 5 6 6 5 4 2 2 3 3 3
6 6 6 6 6 6 4 2 2 2 2 2 2 2 2 2 2 2 1 1 1 1 1 1 1 2 2 3 3 4 4 4 5 4 5 7 7 7 5 3 3 3 4
7 7 7 7 7 7 5 3 2 2 2 2 2 3 2 3 2 1 1 1 1 1 1 1 2 1 1 2 3 3 4 4 5 5 4 3 6 8 8 6 6 4 5
8 8 7 7 8 8 8 7 7 7 6 3 2 2 3 2 2 2 2 2 1 1 1 1 2 2 1 2 2 3 4 4 4 4 5 5 4 4 6 7 6 8 6
9 9 8 8 8 8 7 7 7 7 7 7 6 4 2 2 2 2 2 2 1 1 1 1 2 2 2 2 2 3 3 3 3 4 4 4 5 5 5 6 6 6 5
10 10 9 9 9 9 8 7 7 8 7 7 7 7 7 6 5 3 2 2 2 1 1 1 1 2 1 2 2 2 2 3 3 3 3 3 4 3 3 5 5 6 5
10 10 10 10 10 10 9 9 9 9 8 8 8 7 7 6 6 6 5 3 2 1 0 1 1 1 1 1 1 2 2 2 2 3 2 3 3 3 3 4 5 6 5
11 11 11 10 10 10 10 11 10 9 9 9 9 9 8 7 7 6 4 4 3 2 0 0 1 1 1 1 1 2 2 1 2 2 2 2 2 2 2 2 3 4 6
11 11 12 12 11 11 11 11 11 11 11 11 10 9 8 8 7 6 6 6 4 3 2 1 1 1 1 1 1 1 1 1 2 2 2 2 2 2 2 2 2 3 4
12 12 12 12 12 12 12 12 12 12 12 12 11 10 9 8 8 8 8 7 6 6 5 3 2 1 1 1 1 1 1 2 2 1 2 2 2 2 2 2 2 3 3
13 13 13 14 14 13 13 13 12 13 13 13 11 11 11 9 10 11 10 9 8 7 7 5 2 1 1 1 1 2 1 2 2 2 2 2 2 2 2 2 3 3 2
13 14 14 14 14 15 15 14 14 15 14 14 12 12 12 12 11 12 11 10 10 9 8 6 5 3 3 1 1 1 1 2 2 2 2 2 2 3 2 2 3 3 3
14 15 15 15 15 16 16 15 16 16 16 15 14 13 13 13 12 13 12 11 10 10 9 8 7 6 4 3 2 2 1 1 1 1 1 2 2 2 2 2 3 3 3
15 15 15 16 16 17 17 16 17 17 16 16 15 15 15 15 15 15 14 13 12 11 10 9 9 8 7 6 5 5 5 5 4 2 2 2 4 8 5 3 2 3 4
16 16 16 17 18 18 18 18 18 18 17 17 17 16 17 17 17 16 16 15 14 12 11 10 10 9 8 8 8 7 7 7 6 5 4 5 9 8 9 9 9 7 4
17 17 18 18 19 19 19 20 19 18 18 18 17 18 18 19 18 18 17 17 15 13 12 11 10 10 9 8 8 8 8 8 7 7 6 7 8 10 8 9 9 9 8
19 19 19 20 20 19 20 20 19 19 19 18 19 19 19 19 18 18 18 18 16 15 13 11 11 10 9 8 8 9 8 8 8 8 8 8 8 9 9 9 11 11 12
19 19 19 20 20 20 20 20 19 19 19 20 20 20 19 19 19 19 19 18 17 16 14 12 11 11 11 9 8 9 9 10 10 10 10 10 10 9 9 11 12 13 13
19 20 20 20 21 21 20 20 20 20 21 21 20 20 20 20 20 19 19 18 17 16 14 12 11 11 11 9 9 9 10 11 11 10 11 11 11 10 9 11 12 12 13
20 20 21 22 22 21 20 21 21 21 21 21 21 21 21 21 20 19 18 18 17 16 14 12 11 10 10 9 9 8 10 10 11 11 11 11 10 9 9 10 12 12 13
21 21 22 22 22 21 21 22 22 22 22 22 22 22 21 20 18 19 19 17 16 15 13 12 11 10 9 10 9 8 8 8 10 11 11 11 10 9 9 10 10 11 12
22 22 23 23 22 22 22 23 23 22 22 23 23 22 20 19 18 18 17 16 16 14 13 12 12 11 10 9 9 9 8 9 10 10 11 10 10 9 9 9 10 12 13
23 23 23 24 24 23 23 23 23 22 23 24 22 20 20 20 18 17 16 14 12 14 14 15 14 12 10 9 9 10 10 10 10 10 11 11 11 11 12 12 12 13 13
23 23 24 24 25 24 24 24 23 23 24 23 21 20 20 20 19 17 16 15 14 13 14 15 14 14 12 10 9 9 10 10 10 11 11 13 13 14 15 15 14 14 14
24 25 25 25 26 26 26 25 24 24 24 23 22 21 20 20 19 19 18 15 13 13 13 12 13 13 12 10 10 11 11 10 9 13 14 15 16 16 16 17 17 16 16

GFSMW_con_lsi_147.txt.gz
Lid_Strength_Index
6 6 6 7 7 6 6 5 1 1 0 1 2 2 3 2 2 0 0 0 -0 -0 0 0 1 1 2 2 2 2 3 3 3 4 3 3 2 3 2 2 1 1 1
7 7 8 8 8 8 7 4 1 1 1 1 1 1 2 2 2 1 1 0 -0 -0 -0 -0 0 0 2 2 2 3 3 3 2 4 5 5 3 3 2 2 2 2 2
8 8 9 9 9 9 8 7 7 6 6 2 1 1 1 1 2 2 2 1 1 1 0 0 0 0 1 1 1 2 2 3 2 3 3 6 7 5 3 3 2 2 1
10 10 10 10 10 9 8 8 7 7 7 8 4 2 2 3 2 2 1 1 1 1 1 1 1 1 1 1 1 0 1 2 3 3 3 2 2 5 6 4 4 3 2
11 11 11 11 10 10 9 9 9 9 8 7 7 7 7 7 6 5 4 3 2 -1 -1 -0 -0 0 0 0 0 1 1 2 2 2 2 3 3 3 4 6 4 5 3
12 12 11 11 11 11 10 10 10 10 9 8 8 7 7 6 6 6 5 4 2 1 1 1 0 -0 0 1 0 0 1 1 2 2 2 2 4 4 5 5 4 4 3
12 12 12 12 11 12 11 11 12 12 11 10 10 9 8 8 8 7 7 6 5 4 4 4 3 2 1 -0 0 1 1 1 1 2 2 2 2 2 3 4 4 4 3
13 13 12 12 12 12 13 13 13 13 13 11 11 10 10 9 9 9 10 9 8 8 7 7 5 5 4 2 0 0 1 1 1 1 1 1 1 2 2 3 4 5 4
13 13 13 13 13 13 14 14 14 14 14 13 12 11 11 11 10 10 11 11 10 10 9 8 8 7 6 4 3 1 1 1 1 1 1 1 1 1 1 2 3 4 7
13 13 14 14 14 14 14 15 15 15 15 14 13 12 12 12 12 11 13 13 12 11 11 10 9 8 7 6 5 4 3 1 1 1 1 1 1 1 1 1 2 2 4
14 14 14 15 16 15 15 16 16 16 16 15 14 13 14 14 14 14 14 14 13 13 12 11 10 9 8 7 7 6 4 4 3 2 1 1 1 1 1 1 2 2 2
14 15 15 16 17 17 16 17 17 17 16 16 15 15 15 16 16 16 15 14 14 13 13 12 11 10 9 8 7 7 6 5 6 5 3 3 2 2 1 2 2 2 2
14 16 16 17 17 17 17 18 18 17 17 17 17 16 17 17 17 17 16 16 16 15 14 14 13 12 10 9 8 8 8 8 7 7 6 5 3 3 3 2 2 2 2
15 16 17 17 17 17 18 18 18 18 18 17 17 18 18 18 18 17 17 17 16 16 16 15 14 13 12 10 9 9 9 9 8 8 7 7 6 6 4 5 4 4 2
15 16 17 17 18 18 18 18 19 18 18 19 18 19 18 18 18 18 18 17 17 17 16 16 16 15 12 11 10 10 9 9 9 9 8 7 8 9 8 7 6 5 6
16 17 17 18 18 19 19 19 19 19 18 19 19 19 19 19 19 18 19 18 18 18 17 17 16 15 13 11 10 10 10 10 10 9 8 8 9 8 8 7 7 7 7
17 17 19 19 19 20 20 21 20 19 20 20 20 20 20 19 19 19 18 18 18 17 17 16 15 14 13 11 10 10 10 10 10 9 8 8 7 8 7 7 7 7 7
18 19 20 21 21 21 21 20 19 20 20 20 20 20 20 20 19 19 18 18 17 17 16 15 13 13 12 10 10 10 10 10 9 9 8 8 8 7 8 8 8 8 8
20 21 21 21 22 22 22 20 20 20 20 21 21 21 20 20 19 19 18 18 17 16 15 14 14 14 14 12 11 10 11 11 11 10 9 8 8 8 7 8 10 10 9
21 21 21 22 23 23 22 21 21 21 22 21 21 21 20 20 20 19 19 18 17 16 15 15 15 15 15 14 12 12 12 12 11 10 10 9 8 8 8 9 9 10 10
22 22 23 24 24 22 21 22 22 23 22 22 21 21 21 20 19 19 18 18 17 16 17 16 16 16 15 15 13 12 13 14 13 11 10 10 8 7 7 7 9 9 9
22 22 23 24 24 22 22 23 24 23 23 23 23 22 21 20 19 19 19 18 18 17 18 18 18 17 16 15 14 13 13 13 14 13 10 10 8 8 8 8 8 8 8
24 23 24 24 24 24 23 24 24 23 24 25 25 23 21 20 20 20 20 19 18 18 18 18 19 18 16 16 13 13 13 13 14 13 13 12 12 11 10 9 9 10 9
24 24 24 25 26 25 25 26 25 25 27 27 24 22 22 22 21 20 19 19 19 18 18 17 18 18 16 15 13 13 13 13 13 15 15 14 14 14 14 14 13 12 11
24 24 25 26 27 26 26 27 26 26 26 25 23 23 22 23 22 21 20 19 17 15 16 15 16 17 16 14 12 12 14 15 15 18 19 20 20 20 19 18 17 16 15
25 26 27 27 29 29 29 29 30 28 29 26 24 24 23 23 23 23 22 18 16 15 14 13 13 14 12 12 12 12 13 13 15 21 22 23 23 22 22 21 20 19 19